Regional Weather Roundup
Issued by NWS

Home | Current Version | Previous Version | Text Only | Print | Product List | Glossary Off
Versions: 1 2 3 4 5 6 7 8 9 10 11 12 13 14 15 16 17 18 19 20 21 22 23 24 25 26 27 28 29 30 31 32 33 34 35 36 37 38 39 40 41 42 43 44 45 46 47 48 49 50

000
ASUS43 KLMK 220610
RWRKY
KENTUCKY REGIONAL WEATHER ROUNDUP
NATIONAL WEATHER SERVICE LOUISVILLE KY
200 AM EDT MON SEP 22 2014

NOTE "FAIR" INDICATES FEW OR NO CLOUDS BELOW 12,000 FEET
WITH NO SIGNIFICANT WEATHER AND/OR OBSTRUCTIONS TO VISIBILITY.

KYZ001>023-026-027-061>063-070>075-220700-
WESTERN AND SOUTH CENTRAL KENTUCKY

CITY           SKY/WX    TMP DP  RH WIND       PRES   REMARKS
PADUCAH        CLEAR     62  51  67 N3        30.12R
HENDERSON      CLEAR     55  48  76 NW5       30.12R
OWENSBORO      CLEAR     60  51  72 N5        30.11R
HOPKINSVILLE   CLEAR     59  51  72 N6        30.10R
BOWLING GREEN  CLEAR     61  50  67 N5        30.10R
GLASGOW        CLEAR     57  50  77 CALM      30.09R
$$

KYZ024-025-028>034-038-045-046-053-220700-
NORTH CENTRAL KENTUCKY

CITY           SKY/WX    TMP DP  RH WIND       PRES   REMARKS
LOUISVILLE/SDF CLEAR     59  50  72 N10       30.08R
LOUISVILLE/LOU CLEAR     58  50  75 N5        30.09R
FORT KNOX      CLEAR     55  50  83 NW6       30.08R
$$

KYZ035>037-039>044-047>052-055>060-089>105-220700-
NORTHEAST KENTUCKY

CITY           SKY/WX    TMP DP  RH WIND       PRES   REMARKS
LEXINGTON      CLEAR     56  48  74 N3        30.08R
COVINGTON      CLEAR     54  47  77 NW7       30.08R
FRANKFORT      CLEAR     57  47  69 N6        30.07R
$$

KYZ054-064>069-076>088-106>120-220700-
SOUTHEAST KENTUCKY

CITY           SKY/WX    TMP DP  RH WIND       PRES   REMARKS
JACKSON        CLEAR     57  48  72 NW5       30.06R
LONDON         CLEAR     58  49  72 N3        30.07R
SOMERSET       CLEAR     57  48  72 N3        30.09R
MIDDLESBORO    CLOUDY    56  53  90 CALM      30.07R
MONTICELLO     CLEAR     59  51  74 N5        30.10R
$$



USA.gov is the U.S. government's official web portal to all federal, state and local government web resources and services.